{"data":{"norad_id":67984,"epoch":"2026-09-19T18:03:50.799456Z","epoch_age_seconds":124199,"freshness":"FRESH","line1":"1 67984U 26038Z   26262.75267129  .00020663  00000+0  64029-3 0  9990","line2":"2 67984  97.2854 271.1763 0000134 174.0931 186.0314 15.33461012 32982","mean_motion":15.33461012,"eccentricity":1.34e-5,"inclination_deg":97.2854,"raan_deg":271.1763,"arg_perigee_deg":174.0931,"mean_anomaly_deg":186.0314,"bstar":0.00064029,"rev_number":3298,"period_min":93.905224112734,"perigee_km":465.40382977011,"apogee_km":465.58723912203,"semimajor_km":6843.6325344461,"source":"CELESTRAK","updated_at":"2026-09-20T09:00:43.733967Z"}}